Weather in Bugdatepe

Russia / Republic of Dagestan     41°45′46″N   48°23′43″E
temp.,
°C
wind,
m/s
gust,
m/s
humid.,
%
clouds,
%
prec.,
mm/h
press.,
hPa
HPBL,
m
20 may, fri
fri2000:00+14nw4108798 0.1 1013337
03:00+13s3492100 0.1 101265
06:00+14nnw61278100 0.1 1014740
09:00+13nnw91373100 0.2 1017935
12:00+13nnw3660100 0.1 1018878
15:00+14sse1262100 0.4 1017619
18:00+13sw1268100 0.4 101743
21:00+10sw61086100 2.3 1019228
21 may, sat
sat2100:00+11wsw4579100 0.1 101877
03:00+10sw227420 0.1 101816
06:00+12ssw46730 0.0 1019166
09:00+19sse43420 0.0 10191300
12:00+22e653541 0.0 10181831
15:00+20e77371 0.0 10181064
18:00+18se35454 0.0 1018254
21:00+13ssw46585 0.0 101771
22 may, sun
sun2200:00+12sw46550 0.0 101469
03:00+12ssw46420 0.0 101269
06:00+17ssw35430 0.0 1011118
09:00+25ese23250 0.0 1009935
12:00+27ese77240 0.0 10071306
15:00+25e56280 0.0 1004581
18:00+20nnw34564 0.0 1003115
21:00+13wnw35850 0.0 100280
23 may, mon
mon2300:00+13wnw22750 0.0 100129
03:00+13ssw22550 0.0 100011
06:00+15n22660 0.0 1001115
09:00+21n67570 0.0 1002737
12:00+22n8955100 0.0 10031037
15:00+20nnw795443 0.0 10031001
18:00+19nnw576364 0.0 1002910
21:00+15w5106551 0.1 1002225
24 may, tue
tue2400:00+15w3465100 0.5 100289
03:00+15nnw51265100 0.5 1003427
06:00+13wsw2383100 0.5 100564
09:00+15nnw6878100 0.6 1007603
12:00+19n9105964 0.1 10081082
15:00+17nne7962100 0.1 1009923
18:00+13w2394100 1.9 101292
21:00+13ssw228997 2.4 101322